Regional Weather Roundup
Issued by NWS Raleigh/Durham, NC

Home | Current Version | Previous Version | Text Only | Print | Product List | Glossary On
Versions: 1 2 3 4 5 6 7 8 9 10 11 12 13 14 15 16 17 18 19 20 21 22 23 24 25 26 27 28 29 30 31 32 33 34 35 36 37 38 39 40 41 42 43 44 45 46 47 48 49 50
000
ASUS42 KRAH 052310
RWRRAH
NORTH CAROLINA WEATHER ROUNDUP
NATIONAL WEATHER SERVICE RALEIGH NC
700 PM EDT THU MAY 05 2016

NOTE: "FAIR" INDICATES FEW OR NO CLOUDS BELOW 12,000 FEET WITH NO
SIGNIFICANT WEATHER AND/OR OBSTRUCTIONS TO VISIBILITY.

NCZ001-053-055-056-065-067-060000-
WESTERN NORTH CAROLINA

CITY           SKY/WX    TMP DP  RH WIND       PRES   REMARKS
ASHEVILLE      LGT RAIN  50  38  63 N16G28    29.74R
JEFFERSON      DRIZZLE   38  35  87 NW16      29.70R WCI  29
MORGANTON      RAIN      52  42  68 N3        29.75R
HICKORY        LGT RAIN  52  40  63 N10G18    29.70R
RUTHERFORDTON  PTSUNNY   57  36  44 N13G20    29.70R
MOUNT AIRY     RAIN      47  43  88 NW6       29.71S
BOONE          LGT RAIN  41  36  83 NW10G20   29.72R
$$

NCZ021-022-025-041-071-084-088-060000-
CENTRAL NORTH CAROLINA

CITY           SKY/WX    TMP DP  RH WIND       PRES   REMARKS
CHARLOTTE      PTSUNNY   57  39  51 N10       29.68R
GREENSBORO     LGT RAIN  47  45  93 NW15      29.66S FOG
WINSTON-SALEM  LGT RAIN  46  43  89 NW9       29.69R
RALEIGH-DURHAM PTSUNNY   51  48  89 NW6       29.63R
FORT BRAGG     CLOUDY    55  46  72 NW14      29.62S
FAYETTEVILLE   CLOUDY    58  45  62 NW16G23   29.62R
BURLINGTON     LGT RAIN  48  45  89 W13G20    29.65R
LAURINBURG     PTSUNNY   61  42  49 N13       29.64R
$$

NCZ011-015-027-028-043-044-047-080-103-060000-
NORTHEASTERN NORTH CAROLINA

CITY           SKY/WX    TMP DP  RH WIND       PRES   REMARKS
ROCKY MT-WILSO CLOUDY    54  51  90 N5        29.60S
GREENVILLE     LGT RAIN  54  54 100 CALM      29.63S
WASHINGTON     LGT RAIN  53  52  95 N7        29.59F
ELIZABETH CITY CLOUDY    51  49  92 N14       29.58S
MANTEO         RAIN      51  50  98 NE18      29.58S
CAPE HATTERAS  CLOUDY    54  52  93 N12G18    29.55R
$$

NCZ078-087-090-091-093-098-101-060000-
SOUTHEASTERN NORTH CAROLINA

CITY           SKY/WX    TMP DP  RH WIND       PRES   REMARKS
LUMBERTON      PTSUNNY   61  47  59 N7        29.63R
GOLDSBORO      CLOUDY    58  56  94 N7        29.58S
KINSTON        CLOUDY    55  52  88 N7        29.60S
KENANSVILLE    CLOUDY    58  50  74 CALM      29.60F
NEW BERN       PTSUNNY   56  53  90 N8        29.59R
CHERRY POINT   CLOUDY    57  52  83 N8        29.58R
BEAUFORT       CLOUDY    57  55  93 N10       29.56R
JACKSONVILLE   CLOUDY    57  53  86 N12       29.59R
WILMINGTON     CLOUDY    60  49  66 NW13      29.60R
$$




USA.gov is the U.S. government's official web portal to all federal, state and local government web resources and services.